Location: Byszew
(52.1813°N, 19.2693°E)
Time: 14:01:54
(UTC+00:00)

Cosmos 1378 - Pass Details

Date: 03 March 2021
Orbit: 489 x 501 km, 82.5° (Epoch: 10 April)

Event Time Altitude Azimuth Distance (km) Brightness Sun altitude
Rises 18:23:42 0° 352° (N) 2,607 7.1 -18.7°
Reaches altitude 10° 18:25:51 10° 356° (N) 1,716 6.1 -19.0°
Enters shadow 18:29:32 58° 74° (ENE) 588 3.1 -19.5°
